TimeCDT,TemperatureF,Dew PointF,Humidity,Sea Level PressureIn,VisibilityMPH,Wind Direction,Wind SpeedMPH,Gust SpeedMPH,PrecipitationIn,Events,Conditions,WindDirDegrees,DateUTC
12:53 AM,57.0,39.0,51,30.01,10.0,East,5.8,-,N/A,,Clear,100,2013-04-06 05:53:00
1:53 AM,54.0,41.0,62,30.00,10.0,ENE,4.6,-,N/A,,Clear,70,2013-04-06 06:53:00
2:53 AM,52.0,43.0,71,29.98,10.0,NE,3.5,-,N/A,,Clear,40,2013-04-06 07:53:00
3:53 AM,53.1,42.1,66,29.97,10.0,NE,5.8,-,N/A,,Clear,50,2013-04-06 08:53:00
4:53 AM,51.1,43.0,74,29.95,10.0,NE,5.8,-,N/A,,Clear,40,2013-04-06 09:53:00
5:53 AM,52.0,43.0,71,29.96,10.0,NE,4.6,-,N/A,,Clear,40,2013-04-06 10:53:00
6:53 AM,51.1,43.0,74,29.96,10.0,NE,3.5,-,N/A,,Clear,40,2013-04-06 11:53:00
7:53 AM,51.1,43.0,74,29.98,10.0,NE,5.8,-,N/A,,Clear,40,2013-04-06 12:53:00
8:53 AM,57.0,45.0,64,29.96,10.0,East,6.9,-,N/A,,Clear,80,2013-04-06 13:53:00
9:53 AM,60.1,46.0,60,29.97,10.0,NNE,4.6,-,N/A,,Clear,20,2013-04-06 14:53:00
10:53 AM,68.0,46.9,47,29.98,10.0,SSW,15.0,19.6,N/A,,Clear,210,2013-04-06 15:53:00
11:53 AM,71.1,44.1,38,29.94,10.0,SSW,12.7,24.2,N/A,,Clear,200,2013-04-06 16:53:00
12:53 PM,73.0,45.0,37,29.92,10.0,South,20.7,26.5,N/A,,Clear,190,2013-04-06 17:53:00
1:53 PM,75.9,45.0,33,29.87,10.0,SSW,18.4,23.0,N/A,,Clear,210,2013-04-06 18:53:00
2:53 PM,77.0,44.1,31,29.83,10.0,SSW,16.1,23.0,N/A,,Clear,210,2013-04-06 19:53:00
3:53 PM,78.1,46.9,33,29.82,10.0,SW,19.6,25.3,N/A,,Clear,230,2013-04-06 20:53:00
4:53 PM,78.1,46.0,32,29.81,10.0,South,13.8,23.0,N/A,,Clear,180,2013-04-06 21:53:00
5:53 PM,77.0,48.0,36,29.82,10.0,WSW,16.1,20.7,N/A,,Partly Cloudy,240,2013-04-06 22:53:00
6:53 PM,75.9,46.9,36,29.83,10.0,SW,11.5,-,N/A,,Partly Cloudy,230,2013-04-06 23:53:00
7:53 PM,71.1,48.9,45,29.85,10.0,SW,8.1,-,N/A,,Clear,230,2013-04-07 00:53:00
8:53 PM,66.9,48.9,52,29.86,10.0,WSW,3.5,-,N/A,,Clear,240,2013-04-07 01:53:00
9:53 PM,64.9,51.1,61,29.88,10.0,Calm,Calm,-,N/A,,Clear,0,2013-04-07 02:53:00
10:53 PM,63.0,51.1,65,29.88,10.0,Calm,Calm,-,N/A,,Clear,0,2013-04-07 03:53:00
11:53 PM,61.0,51.1,70,29.88,10.0,Calm,Calm,-,N/A,,Clear,0,2013-04-07 04:53:00